Powrót do katalogu

SL-12 DEB

LostHEO
NORAD 43607·DEBRIS·🇷🇺 Russia

Wystrzelony Mar 1, 2010 z Baikonur Cosmodrome

Loading…

Następne Przeloty (najbliższe 24 godziny)

TLE

NieaktualneSource: Space-Track

Epoka: Feb 16, 2022, 12:42 UTC

1 43607U 10007AJ  22047.52979553  .00018966  00000-0  31185-2 0  9998
2 43607  65.2758 226.4609 4766102 303.5541  19.6193  6.00883802 68403

Śledź SL-12 DEB w czasie rzeczywistym z AllMySat

Download on the App Store